owner,sensor,date,latitude,longitude,vertical_datum,wind_speed,wind_to_direction,wind_speed_of_gust,qcFlag 
TABS,ioos:station:wmo:42046:1,2015-09-01T00:00:00Z,27.8903,-94.0367,4.0,8.783006319,15.58671901,10.15,'11111222,11111222,11111222' 
TABS,ioos:station:wmo:42046:1,2015-09-01T00:30:00Z,27.8903,-94.0367,4.0,6.088521988,45.59857169,7.25,'11111222,11111222,11111222' 
TABS,ioos:station:wmo:42046:1,2015-09-01T01:00:00Z,27.8903,-94.0367,4.0,6.956471807,78.22123869,7.7,'11111222,11111222,11111222' 
TABS,ioos:station:wmo:42046:1,2015-09-01T01:30:00Z,27.8903,-94.0367,4.0,7.168800458,98.5035028,8.97,'11111222,11111222,11111222' 
TABS,ioos:station:wmo:42046:1,2015-09-01T02:00:00Z,27.8903,-94.0367,4.0,6.260814643,131.763061,7.95,'11111222,11111222,11111222' 
TABS,ioos:station:wmo:42046:1,2015-09-01T02:30:00Z,27.8903,-94.0367,4.0,7.320006831,126.948505,8.38,'11111222,11111222,11111222' 
TABS,ioos:station:wmo:42046:1,2015-09-01T03:00:00Z,27.8903,-94.0367,4.0,7.902056694,131.1521452,9.25,'11111222,11111222,11111222' 
TABS,ioos:station:wmo:42046:1,2015-09-01T03:30:00Z,27.8903,-94.0367,4.0,8.415135174,124.2002783,9.47,'11111222,11111222,11111222' 
TABS,ioos:station:wmo:42046:1,2015-09-01T04:00:00Z,27.8903,-94.0367,4.0,7.808123974,127.193104,9.78,'11111222,11111222,11111222' 
TABS,ioos:station:wmo:42046:1,2015-09-01T04:30:00Z,27.8903,-94.0367,4.0,7.921237277,128.9538442,9.3,'11111222,11111222,11111222' 
TABS,ioos:station:wmo:42046:1,2015-09-01T05:00:00Z,27.8903,-94.0367,4.0,8.990939884,126.0417657,10.41,'11111222,11111222,11111222' 
TABS,ioos:station:wmo:42046:1,2015-09-01T05:30:00Z,27.8903,-94.0367,4.0,8.290530743,129.4696504,9.58,'11111222,11111222,11111222' 
TABS,ioos:station:wmo:42046:1,2015-09-01T06:00:00Z,27.8903,-94.0367,4.0,8.718331262,126.3707647,9.94,'11111222,11111222,11111222' 
TABS,ioos:station:wmo:42046:1,2015-09-01T06:30:00Z,27.8903,-94.0367,4.0,8.872705337,131.9395369,10.24,'11111222,11111222,11111222' 
TABS,ioos:station:wmo:42046:1,2015-09-01T07:00:00Z,27.8903,-94.0367,4.0,7.63959423,131.1791945,8.94,'11111222,11111222,11111222' 
TABS,ioos:station:wmo:42046:1,2015-09-01T07:30:00Z,27.8903,-94.0367,4.0,7.51172417,136.4027538,8.89,'11111222,11111222,11111222' 
TABS,ioos:station:wmo:42046:1,2015-09-01T08:00:00Z,27.8903,-94.0367,4.0,7.227129444,134.3275993,8.19,'11111222,11111222,11111222' 
TABS,ioos:station:wmo:42046:1,2015-09-01T08:30:00Z,27.8903,-94.0367,4.0,7.584457792,136.9237004,8.67,'11111222,11111222,11111222' 
TABS,ioos:station:wmo:42046:1,2015-09-01T09:00:00Z,27.8903,-94.0367,4.0,6.004273478,136.0125009,7.36,'11111222,11111222,11111222' 
TABS,ioos:station:wmo:42046:1,2015-09-01T09:30:00Z,27.8903,-94.0367,4.0,5.685771715,135.8554111,6.92,'11111222,11111222,11111222' 
TABS,ioos:station:wmo:42046:1,2015-09-01T10:00:00Z,27.8903,-94.0367,4.0,6.19483656,148.4654923,7.24,'11111222,11111222,11111222' 
TABS,ioos:station:wmo:42046:1,2015-09-01T10:30:00Z,27.8903,-94.0367,4.0,5.277736257,149.986091,6.29,'11111222,11111222,11111222' 
TABS,ioos:station:wmo:42046:1,2015-09-01T11:00:00Z,27.8903,-94.0367,4.0,4.998739841,144.1161812,5.69,'11111222,11111222,11111222' 
TABS,ioos:station:wmo:42046:1,2015-09-01T11:30:00Z,27.8903,-94.0367,4.0,4.669989293,137.0828761,5.41,'11111222,11111222,11111222' 
TABS,ioos:station:wmo:42046:1,2015-09-01T12:00:00Z,27.8903,-94.0367,4.0,3.967971774,138.6785458,4.94,'11111222,11111222,11111222' 
TABS,ioos:station:wmo:42046:1,2015-09-01T12:30:00Z,27.8903,-94.0367,4.0,3.644008782,143.2561851,4.54,'11111222,11111222,11111222' 
TABS,ioos:station:wmo:42046:1,2015-09-01T13:00:00Z,27.8903,-94.0367,4.0,3.507363682,134.538264,4.16,'11111222,11111222,11111222' 
TABS,ioos:station:wmo:42046:1,2015-09-01T13:30:00Z,27.8903,-94.0367,4.0,3.400367627,123.3632766,4.12,'11111222,11111222,11111222' 
TABS,ioos:station:wmo:42046:1,2015-09-01T14:00:00Z,27.8903,-94.0367,4.0,3.689579922,116.2181679,4.31,'11111222,11111222,11111222' 
TABS,ioos:station:wmo:42046:1,2015-09-01T14:30:00Z,27.8903,-94.0367,4.0,3.733108624,112.8563563,4.66,'11111222,11111222,11111222' 
TABS,ioos:station:wmo:42046:1,2015-09-01T15:00:00Z,27.8903,-94.0367,4.0,9.567747906,286.578752,12.99,'11111222,11111222,11111222' 
TABS,ioos:station:wmo:42046:1,2015-09-01T15:30:00Z,27.8903,-94.0367,4.0,8.668108213,273.7041442,10.91,'11111222,11111222,11111222' 
TABS,ioos:station:wmo:42046:1,2015-09-01T16:00:00Z,27.8903,-94.0367,4.0,7.271767323,293.0743855,8.65,'11111222,11111222,11111222' 
TABS,ioos:station:wmo:42046:1,2015-09-01T16:30:00Z,27.8903,-94.0367,4.0,3.98553635,273.0203363,5.34,'11111222,11111222,11111222' 
TABS,ioos:station:wmo:42046:1,2015-09-01T17:00:00Z,27.8903,-94.0367,4.0,1.583824485,266.0174887,2.62,'11111222,11111222,11111222' 
TABS,ioos:station:wmo:42046:1,2015-09-01T17:30:00Z,27.8903,-94.0367,4.0,2.041372088,311.0274081,2.93,'11111222,11111222,11111222' 
TABS,ioos:station:wmo:42046:1,2015-09-01T18:00:00Z,27.8903,-94.0367,4.0,1.963288058,349.433941,2.97,'11111222,11111222,11111222' 
TABS,ioos:station:wmo:42046:1,2015-09-01T18:30:00Z,27.8903,-94.0367,4.0,2.280372777,19.46765322,3.09,'11111222,11111222,11111222' 
TABS,ioos:station:wmo:42046:1,2015-09-01T19:00:00Z,27.8903,-94.0367,4.0,3.860634663,35.83067465,4.49,'11111222,11111222,11111222' 
TABS,ioos:station:wmo:42046:1,2015-09-01T19:30:00Z,27.8903,-94.0367,4.0,4.32649974,61.71682802,5.45,'11111222,11111222,11111222' 
TABS,ioos:station:wmo:42046:1,2015-09-01T20:00:00Z,27.8903,-94.0367,4.0,6.975851203,85.06542628,7.86,'11111222,11111222,11111222' 
TABS,ioos:station:wmo:42046:1,2015-09-01T20:30:00Z,27.8903,-94.0367,4.0,8.670023068,96.15815149,10.16,'11111222,11111222,11111222' 
TABS,ioos:station:wmo:42046:1,2015-09-01T21:00:00Z,27.8903,-94.0367,4.0,8.861207593,100.6001915,10.44,'11111222,11111222,11111222' 
TABS,ioos:station:wmo:42046:1,2015-09-01T21:30:00Z,27.8903,-94.0367,4.0,6.71545233,83.32963314,8.09,'11111222,11111222,11111222' 
TABS,ioos:station:wmo:42046:1,2015-09-01T22:00:00Z,27.8903,-94.0367,4.0,4.948868558,79.75688824,6.66,'11111222,11111222,11111222' 
TABS,ioos:station:wmo:42046:1,2015-09-01T22:30:00Z,27.8903,-94.0367,4.0,5.612165358,83.86233748,6.56,'11111222,11111222,11111222' 
TABS,ioos:station:wmo:42046:1,2015-09-01T23:00:00Z,27.8903,-94.0367,4.0,6.524913793,78.32802816,7.6,'11111222,11111222,11111222' 
TABS,ioos:station:wmo:42046:1,2015-09-01T23:30:00Z,27.8903,-94.0367,4.0,8.30186726,82.45512079,9.48,'11111222,11111222,11111222' 
TABS,ioos:station:wmo:42046:1,2015-09-02T00:00:00Z,27.8903,-94.0367,4.0,7.614262932,79.6341834,9.08,'11111222,11111222,11111222' 
TABS,ioos:station:wmo:42046:1,2015-09-02T00:30:00Z,27.8903,-94.0367,4.0,8.983228818,97.8057843,10.44,'11111222,11111222,11111222' 
TABS,ioos:station:wmo:42046:1,2015-09-02T01:00:00Z,27.8903,-94.0367,4.0,8.275004532,102.1386727,9.53,'11111222,11111222,11111222' 
TABS,ioos:station:wmo:42046:1,2015-09-02T01:30:00Z,27.8903,-94.0367,4.0,8.461264681,96.31068625,9.62,'11111222,11111222,11111222' 
TABS,ioos:station:wmo:42046:1,2015-09-02T02:00:00Z,27.8903,-94.0367,4.0,7.797640669,101.5408917,8.92,'11111222,11111222,11111222' 
TABS,ioos:station:wmo:42046:1,2015-09-02T02:30:00Z,27.8903,-94.0367,4.0,8.74112121,109.098633,9.89,'11111222,11111222,11111222' 
TABS,ioos:station:wmo:42046:1,2015-09-02T03:00:00Z,27.8903,-94.0367,4.0,8.197737493,117.0655229,9.46,'11111222,11111222,11111222' 
TABS,ioos:station:wmo:42046:1,2015-09-02T03:30:00Z,27.8903,-94.0367,4.0,8.111929487,120.7702939,9.37,'11111222,11111222,11111222' 
TABS,ioos:station:wmo:42046:1,2015-09-02T04:00:00Z,27.8903,-94.0367,4.0,9.181514036,128.4554775,10.54,'11111222,11111222,11111222' 
TABS,ioos:station:wmo:42046:1,2015-09-02T04:30:00Z,27.8903,-94.0367,4.0,9.170523431,128.6698962,10.79,'11111222,11111222,11111222' 
TABS,ioos:station:wmo:42046:1,2015-09-02T05:00:00Z,27.8903,-94.0367,4.0,9.294094899,123.9468791,11.02,'11111222,11111222,11111222' 
TABS,ioos:station:wmo:42046:1,2015-09-02T05:30:00Z,27.8903,-94.0367,4.0,9.664000207,126.8820899,10.76,'11111222,11111222,11111222' 
TABS,ioos:station:wmo:42046:1,2015-09-02T06:00:00Z,27.8903,-94.0367,4.0,9.041249914,133.20761,10.02,'11111222,11111222,11111222' 
TABS,ioos:station:wmo:42046:1,2015-09-02T06:30:00Z,27.8903,-94.0367,4.0,7.66710506,129.3370572,8.89,'11111222,11111222,11111222' 
TABS,ioos:station:wmo:42046:1,2015-09-02T07:00:00Z,27.8903,-94.0367,4.0,6.914195543,127.3011432,8.35,'11111222,11111222,11111222' 
TABS,ioos:station:wmo:42046:1,2015-09-02T07:30:00Z,27.8903,-94.0367,4.0,6.631138665,128.6331507,7.62,'11111222,11111222,11111222' 
TABS,ioos:station:wmo:42046:1,2015-09-02T08:00:00Z,27.8903,-94.0367,4.0,7.310164157,132.7274318,8.61,'11111222,11111222,11111222' 
TABS,ioos:station:wmo:42046:1,2015-09-02T08:30:00Z,27.8903,-94.0367,4.0,6.760332832,145.1818526,8.03,'11111222,11111222,11111222' 
TABS,ioos:station:wmo:42046:1,2015-09-02T09:00:00Z,27.8903,-94.0367,4.0,6.841052551,142.1253154,7.77,'11111222,11111222,11111222' 
TABS,ioos:station:wmo:42046:1,2015-09-02T09:30:00Z,27.8903,-94.0367,4.0,7.036149515,139.4961668,8.03,'11111222,11111222,11111222' 
TABS,ioos:station:wmo:42046:1,2015-09-02T10:00:00Z,27.8903,-94.0367,4.0,6.041465054,147.2308714,7.43,'11111222,11111222,11111222' 
TABS,ioos:station:wmo:42046:1,2015-09-02T10:30:00Z,27.8903,-94.0367,4.0,5.426647215,150.648277,6.52,'11111222,11111222,11111222' 
TABS,ioos:station:wmo:42046:1,2015-09-02T11:00:00Z,27.8903,-94.0367,4.0,5.806108852,150.035079,7.08,'11111222,11111222,11111222' 
TABS,ioos:station:wmo:42046:1,2015-09-02T11:30:00Z,27.8903,-94.0367,4.0,6.34315379,150.1209547,7.44,'11111222,11111222,11111222' 
TABS,ioos:station:wmo:42046:1,2015-09-02T12:00:00Z,27.8903,-94.0367,4.0,8.12197636,174.9143685,10.34,'11111222,11111222,11111222' 
TABS,ioos:station:wmo:42046:1,2015-09-02T12:30:00Z,27.8903,-94.0367,4.0,7.620708628,172.7633054,9.05,'11111222,11111222,11111222' 
TABS,ioos:station:wmo:42046:1,2015-09-02T13:00:00Z,27.8903,-94.0367,4.0,5.346821486,177.1057045,6.44,'11111222,11111222,11111222' 
TABS,ioos:station:wmo:42046:1,2015-09-02T13:30:00Z,27.8903,-94.0367,4.0,5.083551908,182.1421594,6.04,'11111222,11111222,11111222' 
TABS,ioos:station:wmo:42046:1,2015-09-02T14:00:00Z,27.8903,-94.0367,4.0,4.630010799,179.876462,5.99,'11111222,11111222,11111222' 
TABS,ioos:station:wmo:42046:1,2015-09-02T14:30:00Z,27.8903,-94.0367,4.0,3.153173005,170.5080378,4.01,'11111222,11111222,11111222' 
TABS,ioos:station:wmo:42046:1,2015-09-02T15:00:00Z,27.8903,-94.0367,4.0,3.190015674,151.7481796,3.72,'11111222,11111222,11111222' 
TABS,ioos:station:wmo:42046:1,2015-09-02T15:30:00Z,27.8903,-94.0367,4.0,3.376047985,156.2445579,3.92,'11111222,11111222,11111222' 
TABS,ioos:station:wmo:42046:1,2015-09-02T16:00:00Z,27.8903,-94.0367,4.0,2.774112471,160.1936073,3.5,'11111222,11111222,11111222' 
TABS,ioos:station:wmo:42046:1,2015-09-02T16:30:00Z,27.8903,-94.0367,4.0,3.687166934,151.4890308,4.71,'11111222,11111222,11111222' 
TABS,ioos:station:wmo:42046:1,2015-09-02T17:00:00Z,27.8903,-94.0367,4.0,12.03317082,192.6735963,15.71,'11111222,11111222,11111222' 
TABS,ioos:station:wmo:42046:1,2015-09-02T17:30:00Z,27.8903,-94.0367,4.0,7.084475986,194.1344964,8.9,'11111222,11111222,11111222' 
TABS,ioos:station:wmo:42046:1,2015-09-02T18:00:00Z,27.8903,-94.0367,4.0,5.083935483,190.4259946,6.43,'11111222,11111222,11111222' 
TABS,ioos:station:wmo:42046:1,2015-09-02T18:30:00Z,27.8903,-94.0367,4.0,5.924229908,188.4448764,6.88,'11111222,11111222,11111222' 
TABS,ioos:station:wmo:42046:1,2015-09-02T19:00:00Z,27.8903,-94.0367,4.0,5.152281048,189.6087659,6.84,'11111222,11111222,11111222' 
TABS,ioos:station:wmo:42046:1,2015-09-02T19:30:00Z,27.8903,-94.0367,4.0,5.116189989,202.4046587,6.16,'11111222,11111222,11111222' 
TABS,ioos:station:wmo:42046:1,2015-09-02T20:00:00Z,27.8903,-94.0367,4.0,4.323944958,213.3961895,5.32,'11111222,11111222,11111222' 
TABS,ioos:station:wmo:42046:1,2015-09-02T20:30:00Z,27.8903,-94.0367,4.0,3.723882383,188.8048411,4.94,'11111222,11111222,11111222' 
TABS,ioos:station:wmo:42046:1,2015-09-02T21:00:00Z,27.8903,-94.0367,4.0,2.637612557,213.870942,3.69,'11111222,11111222,11111222' 
TABS,ioos:station:wmo:42046:1,2015-09-02T21:30:00Z,27.8903,-94.0367,4.0,1.133181362,246.6022908,1.94,'11111222,11111222,11111222' 
TABS,ioos:station:wmo:42046:1,2015-09-02T22:00:00Z,27.8903,-94.0367,4.0,0.901387819,236.3100113,1.84,'11111222,11111222,11111222' 
TABS,ioos:station:wmo:42046:1,2015-09-02T22:30:00Z,27.8903,-94.0367,4.0,0.721803297,100.3762416,1.32,'11111222,11111222,11111222' 
TABS,ioos:station:wmo:42046:1,2015-09-02T23:00:00Z,27.8903,-94.0367,4.0,2.851420699,88.19084399,3.62,'11111222,11111222,11111222' 
TABS,ioos:station:wmo:42046:1,2015-09-02T23:30:00Z,27.8903,-94.0367,4.0,2.65,111.2396818,3.41,'11111222,11111222,11111222' 
TABS,ioos:station:wmo:42046:1,2015-09-03T00:00:00Z,27.8903,-94.0367,4.0,2.968922363,104.8323533,3.93,'11111222,11111222,11111222' 
TABS,ioos:station:wmo:42046:1,2015-09-03T00:30:00Z,27.8903,-94.0367,4.0,2.815546128,122.6744357,3.72,'11111222,11111222,11111222' 
TABS,ioos:station:wmo:42046:1,2015-09-03T01:00:00Z,27.8903,-94.0367,4.0,2.200022727,133.342705,3.08,'11111222,11111222,11111222' 
TABS,ioos:station:wmo:42046:1,2015-09-03T01:30:00Z,27.8903,-94.0367,4.0,2.206173157,135.0003157,3.12,'11111222,11111222,11111222' 
TABS,ioos:station:wmo:42046:1,2015-09-03T02:00:00Z,27.8903,-94.0367,4.0,2.303844613,130.9522958,3.07,'11111222,11111222,11111222' 
TABS,ioos:station:wmo:42046:1,2015-09-03T02:30:00Z,27.8903,-94.0367,4.0,3.922499203,145.1758027,4.88,'11111222,11111222,11111222' 
TABS,ioos:station:wmo:42046:1,2015-09-03T03:00:00Z,27.8903,-94.0367,4.0,4.355249706,151.022341,5.26,'11111222,11111222,11111222' 
TABS,ioos:station:wmo:42046:1,2015-09-03T03:30:00Z,27.8903,-94.0367,4.0,5.350532684,147.0527365,6.26,'11111222,11111222,11111222' 
TABS,ioos:station:wmo:42046:1,2015-09-03T04:00:00Z,27.8903,-94.0367,4.0,5.312409999,142.4185545,6.14,'11111222,11111222,11111222' 
TABS,ioos:station:wmo:42046:1,2015-09-03T04:30:00Z,27.8903,-94.0367,4.0,4.949747468,135.0003157,5.76,'11111222,11111222,11111222' 
TABS,ioos:station:wmo:42046:1,2015-09-03T05:00:00Z,27.8903,-94.0367,4.0,5.209539327,145.2425351,6.3,'11111222,11111222,11111222' 
TABS,ioos:station:wmo:42046:1,2015-09-03T05:30:00Z,27.8903,-94.0367,4.0,4.968913362,149.9264458,5.81,'11111222,11111222,11111222' 
TABS,ioos:station:wmo:42046:1,2015-09-03T06:00:00Z,27.8903,-94.0367,4.0,5.684091836,160.2582853,6.57,'11111222,11111222,11111222' 
TABS,ioos:station:wmo:42046:1,2015-09-03T06:30:00Z,27.8903,-94.0367,4.0,6.18123774,163.9402607,7.39,'11111222,11111222,11111222' 
TABS,ioos:station:wmo:42046:1,2015-09-03T07:00:00Z,27.8903,-94.0367,4.0,6.150203249,168.6537638,7.08,'11111222,11111222,11111222' 
TABS,ioos:station:wmo:42046:1,2015-09-03T07:30:00Z,27.8903,-94.0367,4.0,6.795476437,171.4527885,8.0,'11111222,11111222,11111222' 
TABS,ioos:station:wmo:42046:1,2015-09-03T08:00:00Z,27.8903,-94.0367,4.0,6.964553108,183.7048292,7.75,'11111222,11111222,11111222' 
TABS,ioos:station:wmo:42046:1,2015-09-03T08:30:00Z,27.8903,-94.0367,4.0,6.161826028,178.6052999,7.19,'11111222,11111222,11111222' 
TABS,ioos:station:wmo:42046:1,2015-09-03T09:00:00Z,27.8903,-94.0367,4.0,5.915285285,182.42244,6.74,'11111222,11111222,11111222' 
TABS,ioos:station:wmo:42046:1,2015-09-03T09:30:00Z,27.8903,-94.0367,4.0,5.770025996,183.3783253,6.6,'11111222,11111222,11111222' 
TABS,ioos:station:wmo:42046:1,2015-09-03T10:00:00Z,27.8903,-94.0367,4.0,5.720506971,185.9200794,6.88,'11111222,11111222,11111222' 
TABS,ioos:station:wmo:42046:1,2015-09-03T10:30:00Z,27.8903,-94.0367,4.0,4.984505994,194.7612908,5.97,'11111222,11111222,11111222' 
TABS,ioos:station:wmo:42046:1,2015-09-03T11:00:00Z,27.8903,-94.0367,4.0,4.002161916,194.765599,5.13,'11111222,11111222,11111222' 
TABS,ioos:station:wmo:42046:1,2015-09-03T11:30:00Z,27.8903,-94.0367,4.0,3.968941924,197.7503403,4.91,'11111222,11111222,11111222' 
TABS,ioos:station:wmo:42046:1,2015-09-03T12:00:00Z,27.8903,-94.0367,4.0,4.642628566,189.4219329,5.44,'11111222,11111222,11111222' 
TABS,ioos:station:wmo:42046:1,2015-09-03T12:30:00Z,27.8903,-94.0367,4.0,4.194114925,199.6447992,4.93,'11111222,11111222,11111222' 
TABS,ioos:station:wmo:42046:1,2015-09-03T13:00:00Z,27.8903,-94.0367,4.0,3.752892218,205.4044216,4.93,'11111222,11111222,11111222' 
TABS,ioos:station:wmo:42046:1,2015-09-03T13:30:00Z,27.8903,-94.0367,4.0,2.792131802,211.5269786,3.53,'11111222,11111222,11111222' 
TABS,ioos:station:wmo:42046:1,2015-09-03T14:00:00Z,27.8903,-94.0367,4.0,2.408817137,209.3319814,3.29,'11111222,11111222,11111222' 
TABS,ioos:station:wmo:42046:1,2015-09-03T14:30:00Z,27.8903,-94.0367,4.0,2.218220007,221.1617409,2.87,'11111222,11111222,11111222' 
TABS,ioos:station:wmo:42046:1,2015-09-03T15:00:00Z,27.8903,-94.0367,4.0,1.361910423,240.0464619,1.83,'11111222,11111222,11111222' 
TABS,ioos:station:wmo:42046:1,2015-09-03T15:30:00Z,27.8903,-94.0367,4.0,0.54405882,233.9727109,0.83,'11111222,11111222,11111222' 
TABS,ioos:station:wmo:42046:1,2015-09-03T16:00:00Z,27.8903,-94.0367,4.0,0.330605505,183.4684316,0.8,'11111222,11111222,11111222' 
TABS,ioos:station:wmo:42046:1,2015-09-03T16:30:00Z,27.8903,-94.0367,4.0,0.205182845,223.0251758,0.8,'11111222,11111222,11111222' 
TABS,ioos:station:wmo:42046:1,2015-09-03T17:00:00Z,27.8903,-94.0367,4.0,0.646606526,58.27605031,1.21,'11111222,11111222,11111222' 
TABS,ioos:station:wmo:42046:1,2015-09-03T17:30:00Z,27.8903,-94.0367,4.0,0.931074648,155.9128145,3.19,'11111222,11111222,11111222' 
TABS,ioos:station:wmo:42046:1,2015-09-03T18:00:00Z,27.8903,-94.0367,4.0,3.655475345,176.8638594,4.38,'11111222,11111222,11111222' 
TABS,ioos:station:wmo:42046:1,2015-09-03T18:30:00Z,27.8903,-94.0367,4.0,3.035868904,174.1393966,3.86,'11111222,11111222,11111222' 
TABS,ioos:station:wmo:42046:1,2015-09-03T19:00:00Z,27.8903,-94.0367,4.0,5.12937618,93.46526339,6.47,'11111222,11111222,11111222' 
TABS,ioos:station:wmo:42046:1,2015-09-03T19:30:00Z,27.8903,-94.0367,4.0,2.401499532,102.9950073,2.88,'11111222,11111222,11111222' 
TABS,ioos:station:wmo:42046:1,2015-09-03T20:00:00Z,27.8903,-94.0367,4.0,9.422340474,237.8786696,11.65,'11111222,11111222,11111222' 
TABS,ioos:station:wmo:42046:1,2015-09-03T20:30:00Z,27.8903,-94.0367,4.0,5.890033956,270.1945515,7.61,'11111222,11111222,11111222' 
TABS,ioos:station:wmo:42046:1,2015-09-03T21:00:00Z,27.8903,-94.0367,4.0,1.875153327,285.1478883,3.08,'11111222,11111222,11111222' 
TABS,ioos:station:wmo:42046:1,2015-09-03T21:30:00Z,27.8903,-94.0367,4.0,0.955667306,256.6908524,1.66,'11111222,11111222,11111222' 
TABS,ioos:station:wmo:42046:1,2015-09-03T22:00:00Z,27.8903,-94.0367,4.0,0.65,157.3803984,1.2,'11111222,11111222,11111222' 
TABS,ioos:station:wmo:42046:1,2015-09-03T22:30:00Z,27.8903,-94.0367,4.0,0.920217366,88.75421773,1.61,'11111222,11111222,11111222' 
TABS,ioos:station:wmo:42046:1,2015-09-03T23:00:00Z,27.8903,-94.0367,4.0,2.876125867,123.8009122,3.65,'11111222,11111222,11111222' 
TABS,ioos:station:wmo:42046:1,2015-09-03T23:30:00Z,27.8903,-94.0367,4.0,3.101370665,118.7140224,4.13,'11111222,11111222,11111222' 
TABS,ioos:station:wmo:42046:1,2015-09-04T00:00:00Z,27.8903,-94.0367,4.0,3.728337431,124.8412834,4.6,'11111222,11111222,11111222' 
TABS,ioos:station:wmo:42046:1,2015-09-04T00:30:00Z,27.8903,-94.0367,4.0,3.19812445,132.9729977,4.14,'11111222,11111222,11111222' 
TABS,ioos:station:wmo:42046:1,2015-09-04T01:00:00Z,27.8903,-94.0367,4.0,3.642650134,129.7656208,4.43,'11111222,11111222,11111222' 
TABS,ioos:station:wmo:42046:1,2015-09-04T01:30:00Z,27.8903,-94.0367,4.0,3.649356108,136.1105574,4.39,'11111222,11111222,11111222' 
TABS,ioos:station:wmo:42046:1,2015-09-04T02:00:00Z,27.8903,-94.0367,4.0,3.765912904,130.5851184,4.59,'11111222,11111222,11111222' 
TABS,ioos:station:wmo:42046:1,2015-09-04T02:30:00Z,27.8903,-94.0367,4.0,3.908989639,138.1111491,4.76,'11111222,11111222,11111222' 
TABS,ioos:station:wmo:42046:1,2015-09-04T03:00:00Z,27.8903,-94.0367,4.0,4.781767456,138.4762251,5.81,'11111222,11111222,11111222' 
TABS,ioos:station:wmo:42046:1,2015-09-04T03:30:00Z,27.8903,-94.0367,4.0,4.935838328,140.343359,5.91,'11111222,11111222,11111222' 
TABS,ioos:station:wmo:42046:1,2015-09-04T04:00:00Z,27.8903,-94.0367,4.0,4.234914403,144.3210677,5.18,'11111222,11111222,11111222' 
TABS,ioos:station:wmo:42046:1,2015-09-04T04:30:00Z,27.8903,-94.0367,4.0,5.121035052,152.6846664,5.87,'11111222,11111222,11111222' 
TABS,ioos:station:wmo:42046:1,2015-09-04T05:00:00Z,27.8903,-94.0367,4.0,4.904987258,162.1932783,5.77,'11111222,11111222,11111222' 
TABS,ioos:station:wmo:42046:1,2015-09-04T05:30:00Z,27.8903,-94.0367,4.0,5.518061254,163.4700772,6.33,'11111222,11111222,11111222' 
TABS,ioos:station:wmo:42046:1,2015-09-04T06:00:00Z,27.8903,-94.0367,4.0,5.281713737,169.3072779,6.36,'11111222,11111222,11111222' 
TABS,ioos:station:wmo:42046:1,2015-09-04T06:30:00Z,27.8903,-94.0367,4.0,5.721337256,176.3926505,6.68,'11111222,11111222,11111222' 
TABS,ioos:station:wmo:42046:1,2015-09-04T07:00:00Z,27.8903,-94.0367,4.0,5.752564645,183.7877752,6.42,'11111222,11111222,11111222' 
TABS,ioos:station:wmo:42046:1,2015-09-04T07:30:00Z,27.8903,-94.0367,4.0,5.461913584,191.6187076,6.07,'11111222,11111222,11111222' 
TABS,ioos:station:wmo:42046:1,2015-09-04T08:00:00Z,27.8903,-94.0367,4.0,4.781223693,185.4007648,5.67,'11111222,11111222,11111222' 
TABS,ioos:station:wmo:42046:1,2015-09-04T08:30:00Z,27.8903,-94.0367,4.0,4.86466854,192.4651142,6.78,'11111222,11111222,11111222' 
TABS,ioos:station:wmo:42046:1,2015-09-04T09:00:00Z,27.8903,-94.0367,4.0,5.972478547,187.6011755,7.05,'11111222,11111222,11111222' 
TABS,ioos:station:wmo:42046:1,2015-09-04T09:30:00Z,27.8903,-94.0367,4.0,5.979648819,188.7536372,6.8,'11111222,11111222,11111222' 
TABS,ioos:station:wmo:42046:1,2015-09-04T10:00:00Z,27.8903,-94.0367,4.0,5.975993641,189.1472695,7.15,'11111222,11111222,11111222' 
TABS,ioos:station:wmo:42046:1,2015-09-04T10:30:00Z,27.8903,-94.0367,4.0,5.234424515,194.8328802,5.92,'11111222,11111222,11111222' 
TABS,ioos:station:wmo:42046:1,2015-09-04T11:00:00Z,27.8903,-94.0367,4.0,5.357704732,194.373603,6.3,'11111222,11111222,11111222' 
TABS,ioos:station:wmo:42046:1,2015-09-04T11:30:00Z,27.8903,-94.0367,4.0,5.403415586,186.3755165,6.21,'11111222,11111222,11111222' 
TABS,ioos:station:wmo:42046:1,2015-09-04T12:00:00Z,27.8903,-94.0367,4.0,4.915384013,182.68216,5.75,'11111222,11111222,11111222' 
TABS,ioos:station:wmo:42046:1,2015-09-04T12:30:00Z,27.8903,-94.0367,4.0,4.565084884,188.0592955,5.88,'11111222,11111222,11111222' 
TABS,ioos:station:wmo:42046:1,2015-09-04T13:00:00Z,27.8903,-94.0367,4.0,4.437172523,185.0426497,5.15,'11111222,11111222,11111222' 
TABS,ioos:station:wmo:42046:1,2015-09-04T13:30:00Z,27.8903,-94.0367,4.0,5.534799003,190.6198409,6.28,'11111222,11111222,11111222' 
TABS,ioos:station:wmo:42046:1,2015-09-04T14:00:00Z,27.8903,-94.0367,4.0,5.051227574,192.5782014,5.85,'11111222,11111222,11111222' 
TABS,ioos:station:wmo:42046:1,2015-09-04T14:30:00Z,27.8903,-94.0367,4.0,4.705146119,182.6801781,5.39,'11111222,11111222,11111222' 
TABS,ioos:station:wmo:42046:1,2015-09-04T15:00:00Z,27.8903,-94.0367,4.0,5.041953986,185.3489516,6.12,'11111222,11111222,11111222' 
TABS,ioos:station:wmo:42046:1,2015-09-04T15:30:00Z,27.8903,-94.0367,4.0,5.031779009,188.2269137,5.83,'11111222,11111222,11111222' 
TABS,ioos:station:wmo:42046:1,2015-09-04T16:00:00Z,27.8903,-94.0367,4.0,4.593310353,189.5240305,5.56,'11111222,11111222,11111222' 
TABS,ioos:station:wmo:42046:1,2015-09-04T16:30:00Z,27.8903,-94.0367,4.0,4.483179675,189.6305941,4.96,'11111222,11111222,11111222' 
TABS,ioos:station:wmo:42046:1,2015-09-04T17:00:00Z,27.8903,-94.0367,4.0,4.68027777,192.4625977,5.61,'11111222,11111222,11111222' 
TABS,ioos:station:wmo:42046:1,2015-09-04T17:30:00Z,27.8903,-94.0367,4.0,4.437048569,183.2301731,5.35,'11111222,11111222,11111222' 
TABS,ioos:station:wmo:42046:1,2015-09-04T18:00:00Z,27.8903,-94.0367,4.0,4.729841435,189.1239584,5.56,'11111222,11111222,11111222' 
TABS,ioos:station:wmo:42046:1,2015-09-04T18:30:00Z,27.8903,-94.0367,4.0,4.123542167,186.1255681,4.94,'11111222,11111222,11111222' 